Location: B?jaj?g
(11.7167°N, 92.6667°E)
Time: 04:24:05
(UTC+00:00)

Cosmos 2360 Rocket - Pass Details

Date: 18 September 2020
Orbit: 835 x 844 km, 71.0° (Epoch: 20 October)

Event Time Altitude Azimuth Distance (km) Brightness Sun altitude
Exits shadow 22:51:00 - 220° (SW) 2,916 4.6 -12.5°
Reaches altitude 10° 22:52:21 10° 225° (SW) 2,455 4.2 -12.1°
Maximum altitude 22:57:20 33° 288° (WNW) 1,393 2.9 -10.9°
Drops below altitude 10° 23:02:21 10° 351° (N) 2,456 4.6 -9.7°
Sets 23:05:02 0° 1° (N) 3,390 5.4 -9.0°
